Voltar ao catálogo

DELTA 1 DEB

AtivoPO
NORAD 26826·DEBRIS·🇺🇸 United States

Lançado Jun 12, 1975 de Vandenberg Space Force Base

Loading…

Próximas Passagens (próximas 24 horas)

TLE

AtualizadoSource: Space-Track

Época: Sep 14, 2026, 07:42 UTC

1 26826U 75052KE  26257.32127318  .00000432  00000-0  12970-2 0  9992
2 26826  99.6375 194.1671 0299016 300.0701 215.6555 12.98730641657156

Acompanhe DELTA 1 DEB em tempo real com AllMySat

Download on the App Store